931  
ASPQ40 PGUM 191010  
RWRPQ  
WEATHER ROUNDUP FOR THE MARIANAS AND MICRONESIA  
NATIONAL WEATHER SERVICE TIYAN GU  
800 PM CHST FRI JUL 19 2019  
 
GUZ001>004-191100-  
MARIANA ISLANDS-  
 
CITY SKY/WX TMP DP RH WIND PRES REMARKS
 
GUAM AIRPORT CLEAR 81 75 83 CALM 29.83R  
ANDERSEN AFB DRIZZLE 81 77 89 E3 29.83R  
ROTA AIRPORT MOCLDY 79 75 89 E9 29.81R  
TINIAN AP MOCLDY 82 77 83 E3 29.80R HX 91  
SAIPAN AP CLEAR 82 77 83 E8 29.82R HX 91  
 

 
 
PMZ161-191100-  
REPUBLIC OF PALAU-  
 
CITY SKY/WX TMP DP RH WIND PRES REMARKS
 
KOROR AP MOCLDY 79 77 94 CALM 29.77R  
KOROR WSO NOT AVBL  
 

 
 
PMZ171>174-191100-  
FEDERATED STATES OF MICRONESIA-  
 
CITY SKY/WX TMP DP RH WIND PRES REMARKS
 
YAP AIRPORT MOCLDY 82 77 83 CALM 29.77R HX 91  
CHUUK AP MOCLDY 82 77 83 CALM 29.80R HX 91  
POHNPEI AP NOT AVBL  
POHNPEI WSO CLOUDY 79 77 94 S2 29.86S  
KOSRAE AP NOT AVBL  
 

 
 
PMZ181-191100-  
REPUBLIC OF THE MARSHALL ISLANDS-  
 
CITY SKY/WX TMP DP RH WIND PRES REMARKS
 
KWAJALEIN AP PTCLDY 82 75 78 MISG 29.83R  
MAJURO AP MOCLDY 82 77 83 SE6 29.82R HX 91  
MAJURO WSO MOCLDY 84 75 74 E6 29.80R HX 92  
 

 
 
 
 
CLICK HERE TO GO TO PREVIOUS BULLETINS.

The Nexlab GU Page Main Text Page